Vertical_Velocity
-6 7 -1 1 5 2 -3 -1 -0 -4 -5 -7 -4 1 -4 0 -0 -2 -1 2 -2 1 2 0 -3 -3 2
-4 0 -4 -1 2 3 1 -0 4 7 2 7 4 -1 -4 3 0 -2 1 -1 -1 -3 -3 3 -7 3 -1
-10 1 1 -2 -2 2 8 2 -2 2 -3 0 -1 -8 -2 2 -1 1 1 -2 4 1 -5 -4 1 0 2
-3 -3 -1 9 -5 -4 -2 2 1 0 -1 0 4 2 8 2 2 4 -0 2 2 -4 2 -3 1 -3 -1
-0 -3 2 2 2 3 -9 -5 -1 0 2 0 -3 1 7 -1 1 -1 -3 -2 -0 -4 2 5 -4 2 -5
0 -3 5 3 6 4 -2 -5 -14 5 -5 1 -8 4 1 -3 -0 1 1 2 -4 0 3 2 6 -5 -0
-3 0 -2 4 2 4 4 -1 1 1 -6 -4 5 -0 -5 -4 -4 0 -2 -3 -2 -2 -1 -0 1 1 4
2 -1 -3 -2 -1 0 2 1 -1 -1 2 -13 2 7 5 1 -0 -3 -1 -2 1 -5 2 3 3 3 2
-1 2 -0 -2 -2 -4 1 -2 0 -0 3 -1 -1 3 1 7 1 1 2 -4 -1 -2 0 1 -0 1 2
1 -3 0 2 2 2 -3 -3 1 -2 -2 -4 -0 -2 1 0 -0 -2 -1 -2 -0 0 -1 0 2 7 -2
-2 -2 -3 1 5 5 2 -1 -0 -4 3 -1 3 -0 -2 2 2 -1 -3 1 3 3 -1 -0 -0 5 4
-5 -3 -6 -1 4 2 -0 -0 2 0 -1 3 -7 -3 2 -1 -1 3 -1 -1 -2 -0 -2 -1 -4 3 3
-7 -4 -0 -1 -1 -3 2 1 3 1 0 -1 2 -5 1 1 -1 4 -1 -1 -1 2 1 -1 -1 -1 1
-4 -2 1 -6 -4 1 -2 4 -1 0 1 1 16 -6 1 1 -2 2 -1 -2 1 1 2 0 -1 -0 -1
-8 -5 -1 -5 -1 4 -2 3 -3 -1 -4 1 -3 -4 0 1 -3 -0 2 0 2 -1 -2 -1 -0 3 -1
-4 0 -4 -6 0 4 -0 0 -2 2 -3 -2 6 -2 1 2 -1 -0 2 2 3 -2 -2 -3 -1 -2 5
-4 -1 -1 -2 0 2 2 3 -0 2 1 0 2 18 1 0 -2 3 2 2 -1 -1 -0 -4 1 2 1
Height
3007 3010 3011 3011 3013 3011 3010 3011 3013 3014 3014 3017 3019 3020 3021 3024 3026 3029 3031 3034 3036 3038 3040 3042 3045 3047 3050
2995 2995 2996 2998 3000 3001 3001 3001 3002 3003 3004 3006 3007 3008 3010 3012 3015 3018 3020 3022 3027 3028 3029 3032 3034 3036 3039
2981 2981 2981 2983 2986 2988 2990 2991 2991 2993 2993 2995 2997 2999 3001 3002 3003 3005 3007 3010 3013 3017 3019 3021 3024 3026 3027
2965 2969 2968 2968 2970 2973 2975 2979 2981 2982 2984 2985 2987 2989 2991 2992 2993 2994 2995 2998 3001 3005 3008 3011 3013 3015 3018
2952 2954 2955 2955 2958 2959 2960 2963 2966 2970 2972 2975 2977 2978 2980 2981 2982 2985 2987 2989 2990 2993 2997 3000 3002 3005 3008
2939 2940 2942 2943 2945 2946 2948 2951 2953 2955 2957 2964 2965 2968 2971 2971 2973 2975 2978 2979 2981 2983 2985 2988 2991 2994 2998
2928 2929 2929 2930 2932 2933 2935 2937 2939 2943 2945 2949 2954 2958 2960 2962 2965 2966 2967 2969 2971 2973 2974 2977 2979 2984 2986
2918 2918 2919 2919 2920 2921 2922 2923 2925 2928 2932 2934 2941 2946 2948 2950 2953 2956 2959 2961 2962 2963 2966 2967 2970 2973 2976
2909 2909 2910 2911 2912 2912 2911 2912 2912 2915 2920 2921 2927 2932 2937 2939 2941 2945 2948 2951 2954 2955 2957 2959 2960 2964 2967
2899 2899 2901 2901 2902 2903 2902 2902 2903 2904 2907 2911 2916 2920 2924 2928 2931 2935 2938 2941 2944 2946 2947 2950 2953 2955 2959
2887 2887 2889 2891 2892 2893 2892 2893 2893 2894 2900 2902 2905 2908 2911 2916 2921 2925 2928 2931 2934 2936 2939 2941 2944 2948 2951
2875 2876 2877 2879 2880 2880 2881 2882 2883 2884 2890 2892 2893 2897 2901 2905 2910 2915 2918 2921 2924 2927 2930 2932 2936 2939 2943
2866 2865 2866 2867 2867 2869 2870 2871 2872 2875 2879 2882 2885 2888 2891 2894 2900 2906 2908 2912 2915 2918 2920 2923 2927 2930 2933
2854 2854 2854 2855 2856 2858 2859 2861 2861 2864 2868 2873 2878 2880 2883 2885 2890 2895 2899 2903 2906 2908 2911 2914 2918 2920 2923
2842 2842 2842 2843 2844 2846 2848 2851 2851 2855 2860 2864 2867 2871 2874 2877 2880 2887 2890 2894 2897 2899 2902 2905 2908 2911 2913
2830 2830 2830 2831 2832 2834 2837 2839 2842 2846 2850 2855 2859 2862 2865 2869 2873 2878 2881 2885 2887 2889 2893 2896 2900 2903 2906
2818 2818 2819 2820 2821 2824 2827 2829 2832 2836 2841 2846 2850 2853 2857 2860 2866 2869 2872 2875 2878 2881 2885 2888 2893 2895 2898